COSMOS 1275 DEB, 12742

Orbit data source: Space-Track

COSMOS 1275 DEB, 12742 is space debris in LEO originally from a launch on Thu, 04 Jun 1981 UTC launched from the Plesetsk Missile And Space Complex (PKMTR). Debris objects in space refer to the collection of defunct objects orbiting the Earth. Examples of debris include non-operational satellites, rocket bodies, and fragments generated from explosions, collisions, or faulty payload assembly.

Loading next visibility...
Identifier
12742, 1981-053CK
Orbit
LEO
Country
Flag of CISCIS
Related business
Manufacturer
Unknown
Mission
Spacecraft
Bus & Motor
Unknown
Mass
Unknown
Launch date (UTC)
1981-06-04 (45 years ago)
Launch vehicle
Unknown
Launch site
Plesetsk Missile And Space Complex (PKMTR)
Object type
Payload
Rocket body
Debris
Shape & HBR
Unknown shape, 0.3 m
Radar Cross Section
Medium (>0.1 m² and <1 m²)

Expand to show TLE details & history
Last TLE update: 12 hours ago

TLE from 12 hours ago
0 COSMOS 1275 DEB
1 12742U 81053CK  26255.18765428  .00000071  00000-0  59339-4 0  9995
2 12742  82.9487 209.6398 0048742  51.7275   9.8587 13.73877819260789
Epoch: 2026-09-12T04:30Z
TLE epoch observation values (Epoch: 2026-09-12T04:30:13.329Z)
Latitude
60.9809°
Longitude
163.69944°
Altitude
960.729 km
Speed
7.395 km/s
True Right ascension
14h 49m 49s
True Declination
60° 50' 20"
Sunlit
Object was in daylight at epoch
Visualization orbit readout
Latitude
Unknown
Longitude
Unknown
Altitude
Unknown
Speed
Unknown
Apparent Right ascension
Unknown
Apparent Declination
Unknown
Sunlit
N/A
Visualization observer readout
Local Sidereal Time
09:00:54
Azimuth
Unknown
Elevation
Unknown
Doppler factor
Unknown
Orbital elements
Apogee altitude
1,018.711 km
Perigee altitude
946.953 km
Semi-major axis
7,360.969 km
Eccentricity
0.00487
Inclination
82.9487°
RAAN
209.6398°
Arg. of periapsis
51.7275°
True anomaly
9.95491°
Mean anomaly
9.8587°
Eccentric anomaly
9.90675°
Mean motion
3.43669 °/min
Orbital period
104.75 mins
BSTAR
0.000059339
Loading maneuver chart data...
Computing Atmospheric mass density...
Loading historical data...
Loading historical data...
Loading historical data...
Loading historical data...
Loading historical data...
Loading historical data...
Loading historical data...

Documentation

Showing up to 5 results
|